OK1ZDJ-13 Weather Reports


Display with metric or nautical units.
time (UTC)temp
F
wind
direction
speed
MPH
gust
MPH
rain 1hr
in
rain 24hr
in
rain mn
in
humidity
%
barometer
mb
20260505023804 57 0.0 0.0 0.00 0.00 0.00 65 1011.3
20260505022804 57 0.0 0.0 0.00 0.00 0.00 68 1011.0
20260505020804 58 0.0 0.0 0.00 0.00 0.00 64 1010.9
20260505014804 58 0.0 0.0 0.00 0.00 0.00 65 1011.0
20260505011804 58 0.0 0.0 0.00 0.00 0.00 69 1011.7
20260505010804 58 0.0 0.0 0.00 0.00 0.00 68 1011.9
20260505005804 57 0.0 0.0 0.00 0.00 0.00 68 1011.9
20260505004804 57 0.0 0.0 0.00 0.00 0.00 70 1012.2
20260505003804 57 0.0 0.0 0.00 0.00 0.00 70 1012.3
20260505002804 57 0.0 0.0 0.00 0.00 0.00 70 1012.6
20260505001804 57 0.0 0.0 0.00 0.00 0.00 71 1012.5
20260505000805 57 0.0 0.0 0.00 0.00 0.00 70 1012.5
20260504235804 57 0.0 0.0 0.00 0.00 0.00 71 1012.8
20260504233804 57 0.0 0.0 0.00 0.00 0.00 71 1012.9
20260504232804 57 0.0 0.0 0.00 0.00 0.00 71 1012.6
20260504231804 57 0.0 0.0 0.00 0.00 0.00 70 1012.5
20260504230804 57 0.0 0.0 0.00 0.00 0.00 71 1012.5
20260504225804 56 0.0 0.0 0.00 0.00 0.00 71 1012.4
20260504224804 56 0.0 0.0 0.00 0.00 0.00 71 1012.4
20260504223804 56 0.0 0.0 0.00 0.00 0.00 72 1012.5
20260504222804 56 0.0 0.0 0.00 0.00 0.00 69 1012.6
20260504220804 57 0.0 0.0 0.00 0.00 0.00 69 1012.6
20260504215804 58 0.0 0.0 0.00 0.00 0.00 67 1012.7
20260504214805 58 0.0 0.0 0.00 0.00 0.00 66 1012.8
20260504213809 59 0.0 0.0 0.00 0.00 0.00 66 1012.9
20260504212802 59 0.0 0.0 0.00 0.00 0.00 67 1013.0
20260504210802 59 0.0 0.0 0.00 0.00 0.00 66 1013.1
20260504205803 59 0.0 0.0 0.00 0.00 0.00 65 1013.2
20260504204803 59 0.0 0.0 0.00 0.00 0.00 67 1013.1
20260504203803 59 0.0 0.0 0.00 0.00 0.00 66 1013.2
20260504202803 59 0.0 0.0 0.00 0.00 0.00 67 1013.1
20260504200803 60 0.0 0.0 0.00 0.00 0.00 64 1013.0
20260504195803 60 0.0 0.0 0.00 0.00 0.00 62 1012.9
20260504194805 61 0.0 0.0 0.00 0.00 0.00 61 1012.8
20260504192803 62 0.0 0.0 0.00 0.00 0.00 58 1012.8
20260504191803 63 0.0 0.0 0.00 0.00 0.00 57 1012.9
20260504190803 64 0.0 0.0 0.00 0.00 0.00 57 1012.9
20260504185802 65 0.0 0.0 0.00 0.00 0.00 57 1012.9
20260504184803 65 0.0 0.0 0.00 0.00 0.00 56 1012.9
20260504183803 66 0.0 0.0 0.00 0.00 0.00 53 1012.8
20260504182804 67 0.0 0.0 0.00 0.00 0.00 52 1012.8
20260504181803 67 0.0 0.0 0.00 0.00 0.00 52 1012.8
20260504180803 68 0.0 0.0 0.00 0.00 0.00 51 1012.8
20260504175802 69 0.0 0.0 0.00 0.00 0.00 49 1012.8
20260504174803 71 0.0 0.0 0.00 0.00 0.00 48 1012.8
20260504173802 72 0.0 0.0 0.00 0.00 0.00 45 1012.7
20260504172802 73 0.0 0.0 0.00 0.00 0.00 43 1012.6
20260504171802 74 0.0 0.0 0.00 0.00 0.00 40 1012.8
20260504170802 75 0.0 0.0 0.00 0.00 0.00 40 1012.7
20260504150801 78 0.0 0.0 0.00 0.00 0.00 29 1013.1
20260504130801 75 0.0 0.0 0.00 0.00 0.00 32 1014.1
20260504081759 65 0.0 0.0 0.00 0.00 0.00 42 1016.2
20260504080759 65 0.0 0.0 0.00 0.00 0.00 41 1016.1
20260504045759 52 0.0 0.0 0.00 0.00 0.00 66 1015.7
20260504044759 51 0.0 0.0 0.00 0.00 0.00 69 1015.5
20260504043759 50 0.0 0.0 0.00 0.00 0.00 67 1015.3
20260504042759 49 0.0 0.0 0.00 0.00 0.00 69 1015.3
20260504041759 48 0.0 0.0 0.00 0.00 0.00 70 1015.5
20260504040759 48 0.0 0.0 0.00 0.00 0.00 70 1015.6
20260504035759 48 0.0 0.0 0.00 0.00 0.00 69 1015.6
20260504034800 47 0.0 0.0 0.00 0.00 0.00 71 1015.4
20260504033804 47 0.0 0.0 0.00 0.00 0.00 69 1015.5
20260504032758 48 0.0 0.0 0.00 0.00 0.00 67 1015.6
20260504031758 48 0.0 0.0 0.00 0.00 0.00 66 1015.5
20260504030758 48 0.0 0.0 0.00 0.00 0.00 66 1015.5
20260504025758 49 0.0 0.0 0.00 0.00 0.00 64 1015.5
20260504024758 50 0.0 0.0 0.00 0.00 0.00 63 1015.5